| time (UTC) | temp C | wind direction | speed KPH | gust KPH | rain 1hr cm | rain 24hr cm | rain mn cm | humidity % | barometer mb |
| 20260506134522 | 18 | 248 | 0.0 | 6.4 | 0.00 | 0.00 | 0.00 | 43 | 1009.4 |
| 20260506133016 | 18 | 221 | 3.2 | 11.3 | 0.00 | 0.00 | 0.00 | 42 | 1009.5 |
| 20260506131537 | 18 | 96 | 1.6 | 9.7 | 0.00 | 0.00 | 0.00 | 44 | 1009.6 |
| 20260506130023 | 17 | 52 | 3.2 | 9.7 | 0.00 | 0.00 | 0.00 | 45 | 1009.7 |
| 20260506124514 | 17 | 74 | 1.6 | 6.4 | 0.00 | 0.00 | 0.00 | 46 | 1009.9 |
| 20260506123010 | 17 | 86 | 3.2 | 8.0 | 0.00 | 0.00 | 0.00 | 45 | 1010.0 |
| 20260506121507 | 17 | 281 | 1.6 | 8.0 | 0.00 | 0.00 | 0.00 | 46 | 1010.2 |
| 20260506120013 | 16 | 342 | 3.2 | 11.3 | 0.00 | 0.00 | 0.00 | 48 | 1010.3 |
| 20260506114506 | 16 | 213 | 0.0 | 14.5 | 0.00 | 0.00 | 0.00 | 48 | 1010.5 |
| 20260506113002 | 16 | 67 | 3.2 | 17.7 | 0.00 | 0.00 | 0.00 | 50 | 1010.4 |
| 20260506111600 | 15 | 84 | 1.6 | 11.3 | 0.00 | 0.00 | 0.00 | 51 | 1010.6 |
| 20260506110104 | 15 | 45 | 1.6 | 9.7 | 0.00 | 0.00 | 0.00 | 50 | 1010.7 |
| 20260506104558 | 15 | 142 | 1.6 | 11.3 | 0.00 | 0.00 | 0.00 | 52 | 1010.8 |
| 20260506103054 | 15 | 169 | 3.2 | 11.3 | 0.00 | 0.00 | 0.00 | 54 | 1010.9 |
| 20260506101551 | 13 | 275 | 0.0 | 9.7 | 0.00 | 0.00 | 0.00 | 54 | 1011.0 |
| 20260506100050 | 14 | 238 | 3.2 | 9.7 | 0.00 | 0.00 | 0.00 | 56 | 1011.2 |
| 20260506094604 | 13 | 155 | 3.2 | 8.0 | 0.00 | 0.00 | 0.00 | 59 | 1011.3 |
| 20260506093047 | 13 | 112 | 4.8 | 12.9 | 0.00 | 0.00 | 0.00 | 58 | 1011.1 |
| 20260506091548 | 13 | 89 | 4.8 | 11.3 | 0.00 | 0.00 | 0.00 | 60 | 1011.2 |
| 20260506090042 | 12 | 272 | 1.6 | 8.0 | 0.00 | 0.00 | 0.00 | 62 | 1011.2 |
| 20260506084543 | 12 | 94 | 0.0 | 8.0 | 0.00 | 0.00 | 0.00 | 63 | 1011.2 |
| 20260506083037 | 11 | 140 | 4.8 | 11.3 | 0.00 | 0.00 | 0.00 | 64 | 1011.2 |
| 20260506081536 | 11 | 76 | 6.4 | 11.3 | 0.00 | 0.00 | 0.00 | 64 | 1011.2 |
| 20260506073029 | 10 | 101 | 4.8 | 11.3 | 0.00 | 0.00 | 0.00 | 69 | 1011.2 |
| 20260506071531 | 10 | 70 | 0.0 | 8.0 | 0.00 | 0.00 | 0.00 | 72 | 1011.2 |
| 20260506061524 | 8 | 326 | 0.0 | 1.6 | 0.00 | 0.00 | 0.00 | 75 | 1010.9 |
| 20260506044516 | 5 | 242 | 0.0 | 0.0 | 0.00 | 0.00 | 0.00 | 84 | 1010.5 |
| 20260506043014 | 6 | 242 | 0.0 | 0.0 | 0.00 | 0.00 | 0.00 | 81 | 1010.4 |
| 20260506041515 | 6 | 242 | 0.0 | 0.0 | 0.00 | 0.00 | 0.00 | 81 | 1010.3 |
| 20260506040013 | 6 | 242 | 0.0 | 0.0 | 0.00 | 0.00 | 0.00 | 81 | 1010.4 |
| 20260506034513 | 5 | 242 | 0.0 | 0.0 | 0.00 | 0.00 | 0.00 | 85 | 1010.5 |
| 20260506033010 | 5 | 242 | 0.0 | 0.0 | 0.00 | 0.00 | 0.00 | 83 | 1010.5 |
| 20260506031509 | 6 | 242 | 0.0 | 0.0 | 0.00 | 0.00 | 0.00 | 82 | 1010.4 |
| 20260506030016 | 6 | 242 | 0.0 | 0.0 | 0.00 | 0.00 | 0.00 | 81 | 1010.4 |
| 20260506024514 | 6 | 242 | 0.0 | 0.0 | 0.00 | 0.00 | 0.00 | 81 | 1010.3 |
| 20260506023003 | 6 | 242 | 0.0 | 0.0 | 0.00 | 0.00 | 0.00 | 80 | 1010.4 |
| 20260506021503 | 6 | 242 | 0.0 | 0.0 | 0.00 | 0.00 | 0.00 | 80 | 1010.4 |
| 20260506020002 | 6 | 242 | 0.0 | 0.0 | 0.00 | 0.00 | 0.00 | 80 | 1010.6 |
| 20260506014501 | 6 | 242 | 0.0 | 0.0 | 0.00 | 0.00 | 0.00 | 80 | 1010.4 |
| 20260506013101 | 6 | 242 | 0.0 | 0.0 | 0.00 | 0.00 | 0.00 | 80 | 1010.4 |
| 20260506011559 | 7 | 242 | 0.0 | 0.0 | 0.00 | 0.00 | 0.00 | 79 | 1010.5 |
| 20260506010057 | 7 | 242 | 0.0 | 0.0 | 0.00 | 0.00 | 0.00 | 78 | 1010.6 |
| 20260506004556 | 7 | 242 | 0.0 | 0.0 | 0.00 | 0.00 | 0.00 | 76 | 1010.6 |
| 20260506003054 | 7 | 242 | 0.0 | 3.2 | 0.00 | 0.00 | 0.00 | 76 | 1010.7 |
| 20260506001552 | 7 | 243 | 1.6 | 4.8 | 0.00 | 0.00 | 0.00 | 75 | 1010.7 |
| 20260506000049 | 8 | 169 | 0.0 | 0.0 | 0.00 | 0.00 | 0.00 | 73 | 1010.7 |
| 20260505234550 | 8 | 148 | 0.0 | 3.2 | 0.00 | 0.00 | 0.00 | 72 | 1010.6 |
| 20260505233044 | 8 | 162 | 0.0 | 1.6 | 0.00 | 0.00 | 0.00 | 71 | 1010.4 |
| 20260505231552 | 8 | 212 | 0.0 | 1.6 | 0.00 | 0.00 | 0.00 | 68 | 1010.4 |
| 20260505230052 | 9 | 261 | 0.0 | 1.6 | 0.00 | 0.00 | 0.00 | 67 | 1010.4 |
| 20260505224537 | 10 | 117 | 0.0 | 3.2 | 0.00 | 0.00 | 0.00 | 64 | 1010.3 |
| 20260505223036 | 10 | 121 | 0.0 | 1.6 | 0.00 | 0.00 | 0.00 | 63 | 1010.2 |
| 20260505221535 | 10 | 158 | 0.0 | 1.6 | 0.00 | 0.00 | 0.00 | 62 | 1010.3 |
| 20260505220032 | 10 | 124 | 0.0 | 4.8 | 0.00 | 0.00 | 0.00 | 62 | 1010.4 |
| 20260505214530 | 10 | 98 | 0.0 | 1.6 | 0.00 | 0.00 | 0.00 | 60 | 1010.4 |
| 20260505213030 | 11 | 98 | 0.0 | 3.2 | 0.00 | 0.00 | 0.00 | 58 | 1010.4 |
| 20260505211529 | 11 | 68 | 0.0 | 1.6 | 0.00 | 0.00 | 0.00 | 57 | 1010.4 |
| 20260505210030 | 12 | 314 | 0.0 | 0.0 | 0.00 | 0.00 | 0.00 | 54 | 1010.3 |
| 20260505204530 | 12 | 34 | 0.0 | 6.4 | 0.00 | 0.00 | 0.00 | 54 | 1010.3 |
| 20260505203028 | 12 | 302 | 0.0 | 4.8 | 0.00 | 0.00 | 0.00 | 52 | 1010.1 |
| 20260505201529 | 12 | 18 | 0.0 | 4.8 | 0.00 | 0.00 | 0.00 | 52 | 1010.1 |
| 20260505200028 | 13 | 262 | 0.0 | 6.4 | 0.00 | 0.00 | 0.00 | 50 | 1009.9 |
| 20260505194526 | 13 | 317 | 1.6 | 9.7 | 0.00 | 0.00 | 0.00 | 48 | 1009.7 |
| 20260505193025 | 13 | 316 | 3.2 | 9.7 | 0.00 | 0.00 | 0.00 | 47 | 1009.6 |
| 20260505191527 | 14 | 303 | 3.2 | 12.9 | 0.00 | 0.00 | 0.00 | 45 | 1009.5 |
| 20260505190024 | 15 | 287 | 4.8 | 16.1 | 0.00 | 0.00 | 0.00 | 43 | 1009.4 |
| 20260505184525 | 16 | 282 | 4.8 | 16.1 | 0.00 | 0.00 | 0.00 | 41 | 1009.2 |
| 20260505183032 | 16 | 286 | 8.0 | 16.1 | 0.00 | 0.00 | 0.00 | 40 | 1009.2 |
| 20260505181522 | 16 | 354 | 6.4 | 16.1 | 0.00 | 0.00 | 0.00 | 38 | 1009.1 |
| 20260505180040 | 17 | 28 | 6.4 | 16.1 | 0.00 | 0.00 | 0.00 | 38 | 1009.0 |
| 20260505174520 | 17 | 307 | 8.0 | 19.3 | 0.00 | 0.00 | 0.00 | 37 | 1009.0 |
| 20260505173020 | 16 | 320 | 11.3 | 24.1 | 0.00 | 0.00 | 0.00 | 38 | 1009.0 |
| 20260505171519 | 17 | 324 | 6.4 | 20.9 | 0.00 | 0.00 | 0.00 | 37 | 1008.9 |
| 20260505170023 | 17 | 233 | 9.7 | 22.5 | 0.00 | 0.00 | 0.00 | 36 | 1008.9 |
| 20260505164518 | 17 | 8 | 1.6 | 16.1 | 0.00 | 0.00 | 0.00 | 36 | 1008.9 |
| 20260505163017 | 17 | 339 | 6.4 | 22.5 | 0.00 | 0.00 | 0.00 | 36 | 1008.9 |
| 20260505161517 | 17 | 311 | 6.4 | 22.5 | 0.00 | 0.00 | 0.00 | 37 | 1009.0 |
| 20260505153015 | 17 | 4 | 8.0 | 22.5 | 0.00 | 0.00 | 0.00 | 37 | 1009.0 |
| 20260505151514 | 17 | 311 | 9.7 | 25.7 | 0.00 | 0.00 | 0.00 | 38 | 1008.9 |